Tracking 31027 objects as of 19-Jul-2025
HD Live streaming from Space Station
objects crossing your sky now

AMC-7 (GE-7)

Track AMC-7 (GE-7) now!
AMC-7 (GE-7) is classified as:


NORAD ID: 26495
Int'l Code: 2000-054B
Perigee: 36,082.7 km
Apogee: 36,148.5 km
Inclination: 6.1 °
Period: 1,452.6 minutes
Semi major axis: 42486 km
RCS: 22.9975 m2 (large)
Launch date: September 14, 2000
Source: SOCIETE EUROPEENNE DES SATELLITES (SES)
Launch site: FRENCH GUIANA (FRGUI)

Cable programming; 24 C-band; CONUS, Alaska, Hawaii, Caribbean
Your satellite tracking list
STARLINK-1243
Track 1 satellite(s)




NASA's NSSDC Master Catalog

Two Line Element Set (TLE):
1 26495U 00054B   25199.24767093 -.00000213  00000-0  00000-0 0  9996
2 26495   6.0619  74.2906 0007752  97.8105 163.0733  0.99134521 90656
Source of the keplerian elements: AFSPC